EW5586 Weather Reports


time (UTC)temp
C
wind
direction
speed
KPH
gust
KPH
rain 1hr
cm
rain 24hr
cm
rain mn
cm
humidity
%
barometer
mb
20260902063203 20 157 1.6 11.3 0.00 0.00 0.00 96 1015.7
20260902062703 19 161 1.6 8.0 0.00 0.00 0.00 96 1015.8
20260902062203 18 38 1.6 6.4 0.00 0.00 0.00 96 1015.9
20260902060703 17 5 0.0 0.0 0.00 0.00 0.00 94 1015.7
20260902060203 16 5 0.0 0.0 0.00 0.00 0.00 94 1015.8
20260902055203 16 5 0.0 0.0 0.00 0.00 0.00 93 1015.8
20260902054703 16 5 0.0 0.0 0.00 0.00 0.00 93 1015.8
20260902054202 16 5 0.0 0.0 0.00 0.00 0.00 93 1015.9
20260902053203 17 5 0.0 0.0 0.00 0.00 0.00 92 1015.8
20260902052703 17 5 0.0 0.0 0.00 0.00 0.00 92 1015.7
20260902052200 17 5 0.0 0.0 0.00 0.00 0.00 92 1015.7
20260902051701 17 5 0.0 0.0 0.00 0.00 0.00 92 1015.7
20260902051159 17 5 0.0 0.0 0.00 0.00 0.00 92 1015.7
20260902045653 17 5 0.0 0.0 0.00 0.00 0.00 92 1015.8
20260902045151 17 5 0.0 0.0 0.00 0.00 0.00 92 1015.7
20260902044651 17 5 0.0 0.0 0.00 0.00 0.00 91 1015.6
20260902044156 17 5 0.0 0.0 0.00 0.00 0.00 91 1015.5
20260902043648 17 5 0.0 0.0 0.00 0.00 0.00 91 1015.6
20260902043149 17 5 0.0 0.0 0.00 0.00 0.00 91 1015.6
20260902042647 17 5 0.0 0.0 0.00 0.00 0.00 91 1015.6
20260902042147 17 5 0.0 0.0 0.00 0.00 0.00 91 1015.6
20260902041645 17 5 0.0 0.0 0.00 0.00 0.00 90 1015.6
20260902041145 17 5 0.0 0.0 0.00 0.00 0.00 90 1015.5
20260902040643 17 5 0.0 0.0 0.00 0.00 0.00 90 1015.5
20260902040136 17 5 0.0 0.0 0.00 0.00 0.00 90 1015.4
20260902035630 17 5 0.0 0.0 0.00 0.00 0.00 89 1015.4
20260902035124 17 5 0.0 0.0 0.00 0.00 0.00 89 1015.5
20260902034619 18 0 0.0 0.0 0.00 0.00 0.00 89 1015.5
20260902034112 18 0 0.0 0.0 0.00 0.00 0.00 89 1015.5
20260902033606 18 0 0.0 0.0 0.00 0.00 0.00 89 1015.4
20260902033101 18 0 0.0 0.0 0.00 0.00 0.00 89 1015.5
20260902032557 18 0 0.0 0.0 0.00 0.00 0.00 89 1015.4
20260902031542 18 0 0.0 0.0 0.00 0.00 0.00 89 1015.5
20260902031037 18 0 0.0 0.0 0.00 0.00 0.00 89 1015.5
20260902030530 18 0 0.0 0.0 0.00 0.00 0.00 89 1015.4
20260902030024 18 0 0.0 0.0 0.00 0.00 0.00 89 1015.4
20260902025518 18 0 0.0 0.0 0.00 0.00 0.00 89 1015.3
20260902025012 18 0 0.0 0.0 0.00 0.00 0.00 89 1015.2
20260902024506 18 0 0.0 0.0 0.00 0.00 0.00 89 1015.2
20260902024001 18 0 0.0 0.0 0.00 0.00 0.00 89 1015.3
20260902023454 18 0 0.0 0.0 0.00 0.00 0.00 88 1015.3
20260902022948 18 0 0.0 0.0 0.00 0.00 0.00 88 1015.3
20260902021936 18 5 0.0 0.0 0.00 0.00 0.00 86 1015.4
20260902021430 18 5 0.0 0.0 0.00 0.00 0.00 85 1015.3
20260902020924 18 5 0.0 0.0 0.00 0.00 0.00 84 1015.2
20260902020418 19 0 0.0 0.0 0.00 0.00 0.00 83 1015.2
20260902015912 19 0 0.0 0.0 0.00 0.00 0.00 83 1015.2
20260902015406 19 0 0.0 0.0 0.00 0.00 0.00 82 1015.2
20260902014354 20 0 0.0 0.0 0.00 0.00 0.00 82 1015.2
20260902013848 20 355 0.0 0.0 0.00 0.00 0.00 81 1015.1
20260902013343 20 0 0.0 0.0 0.00 0.00 0.00 80 1015.1
20260902012836 20 0 0.0 0.0 0.00 0.00 0.00 79 1015.1
20260902012331 20 5 0.0 0.0 0.00 0.00 0.00 79 1015.0
20260902011824 20 9 0.0 0.0 0.00 0.00 0.00 78 1015.0
20260902011318 20 11 0.0 0.0 0.00 0.00 0.00 78 1015.0
20260902010812 20 5 0.0 0.0 0.00 0.00 0.00 78 1014.9
20260902005802 21 0 0.0 0.0 0.00 0.00 0.00 77 1014.7
20260902005254 21 12 0.0 0.0 0.00 0.00 0.00 77 1014.6
20260902004748 21 5 0.0 0.0 0.00 0.00 0.00 76 1014.5
20260902004242 21 0 0.0 0.0 0.00 0.00 0.00 76 1014.5
20260902003736 21 11 0.0 0.0 0.00 0.00 0.00 76 1014.5
20260902003231 21 5 0.0 0.0 0.00 0.00 0.00 76 1014.5
20260902002218 21 355 0.0 0.0 0.00 0.00 0.00 76 1014.7
20260902001206 21 331 1.6 6.4 0.00 0.00 0.00 75 1014.7
20260902000700 21 19 0.0 4.8 0.00 0.00 0.00 74 1014.5
20260902000154 21 19 0.0 1.6 0.00 0.00 0.00 74 1014.5
20260901235141 22 350 1.6 11.3 0.00 0.00 0.00 74 1014.8
20260901234634 22 5 0.0 11.3 0.00 0.00 0.00 73 1014.8
20260901234128 22 5 1.6 6.4 0.00 0.00 0.00 74 1014.9
20260901233622 22 29 3.2 6.4 0.00 0.00 0.00 73 1014.9
20260901233116 22 45 3.2 11.3 0.00 0.00 0.00 74 1014.9
20260901232610 22 350 3.2 11.3 0.00 0.00 0.00 73 1015.0
20260901232104 22 0 3.2 12.9 0.00 0.00 0.00 74 1014.9
20260901231052 22 348 1.6 8.0 0.00 0.00 0.00 73 1014.9
20260901230547 22 5 1.6 8.0 0.00 0.00 0.00 74 1014.9
20260901230040 22 17 3.2 9.7 0.00 0.00 0.00 74 1014.9
20260901225535 23 335 1.6 9.7 0.00 0.00 0.00 74 1014.8
20260901225028 23 355 1.6 9.7 0.00 0.00 0.00 75 1014.8
20260901224523 23 45 0.0 4.8 0.00 0.00 0.00 76 1014.9
20260901223512 23 0 0.0 4.8 0.00 0.00 0.00 76 1014.8
20260901223007 23 337 1.6 12.9 0.00 0.00 0.00 77 1014.7
20260901222458 23 355 1.6 12.9 0.00 0.00 0.00 77 1014.7
20260901221952 24 0 0.0 8.0 0.00 0.00 0.00 78 1014.7
20260901221446 24 336 0.0 8.0 0.00 0.00 0.00 79 1014.6
20260901220945 24 13 0.0 0.0 0.00 0.00 0.00 79 1014.5
20260901220434 24 13 0.0 0.0 0.00 0.00 0.00 80 1014.5
20260901215928 24 13 0.0 0.0 0.00 0.00 0.00 79 1014.5
20260901215422 25 13 0.0 0.0 0.00 0.00 0.00 78 1014.5
20260901214916 25 17 0.0 0.0 0.00 0.00 0.00 79 1014.5
20260901214410 25 339 0.0 0.0 0.00 0.00 0.00 78 1014.4
20260901213905 25 0 0.0 0.0 0.00 0.00 0.00 78 1014.4
20260901213359 25 355 0.0 0.0 0.00 0.00 0.00 79 1014.3
20260901212852 25 346 0.0 0.0 0.00 0.00 0.00 78 1014.3
20260901212347 25 346 0.0 0.0 0.00 0.00 0.00 77 1014.4
20260901211840 25 346 0.0 0.0 0.00 0.00 0.00 77 1014.3
20260901211334 25 0 0.0 0.0 0.00 0.00 0.00 77 1014.2
20260901210829 25 0 0.0 0.0 0.00 0.00 0.00 77 1014.3
20260901210323 26 0 0.0 0.0 0.00 0.00 0.00 77 1014.2
20260901205816 26 0 0.0 0.0 0.00 0.00 0.00 75 1014.3
20260901205311 26 0 0.0 0.0 0.00 0.00 0.00 75 1014.2
20260901204259 26 351 0.0 0.0 0.00 0.00 0.00 73 1014.2
20260901203752 26 0 0.0 0.0 0.00 0.00 0.00 72 1014.1
20260901203246 27 0 0.0 0.0 0.00 0.00 0.00 72 1014.0
20260901202740 27 0 0.0 0.0 0.00 0.00 0.00 71 1013.9
20260901202234 27 0 0.0 0.0 0.00 0.00 0.00 70 1013.8
20260901201730 27 5 0.0 0.0 0.00 0.00 0.00 72 1013.8
20260901201223 27 5 0.0 1.6 0.00 0.00 0.00 72 1013.9
20260901200716 27 0 0.0 1.6 0.00 0.00 0.00 74 1013.9
20260901200210 27 340 0.0 0.0 0.00 0.00 0.00 74 1013.8
20260901195704 27 346 0.0 0.0 0.00 0.00 0.00 74 1013.9
20260901195158 27 355 0.0 0.0 0.00 0.00 0.00 73 1014.0
20260901194652 27 10 0.0 0.0 0.00 0.00 0.00 75 1014.0
20260901194146 27 10 0.0 0.0 0.00 0.00 0.00 73 1014.3
20260901193640 27 350 0.0 3.2 0.00 0.00 0.00 72 1014.2
20260901193135 27 337 0.0 3.2 0.00 0.00 0.00 72 1014.1
20260901192629 27 355 0.0 4.8 0.00 0.00 0.00 71 1014.0
20260901192124 27 343 1.6 8.0 0.00 0.00 0.00 72 1014.1
20260901191625 27 11 0.0 8.0 0.00 0.00 0.00 73 1014.2
20260901191124 27 126 0.0 0.0 0.00 0.00 0.00 75 1014.1
20260901190625 27 126 0.0 0.0 0.00 0.00 0.00 73 1014.2
20260901190124 27 338 0.0 0.0 0.00 0.00 0.00 74 1014.1
20260901185625 26 339 0.0 0.0 0.00 0.00 0.00 74 1014.1
20260901185124 26 49 0.0 0.0 0.00 0.00 0.00 75 1014.1
20260901184624 26 342 0.0 0.0 0.00 0.00 0.00 74 1014.1
20260901184123 26 342 0.0 0.0 0.00 0.00 0.00 72 1014.2
20260901183622 27 268 0.0 0.0 0.00 0.00 0.00 71 1014.2
20260901183122 27 350 0.0 1.6 0.00 0.00 0.00 73 1014.3
20260901182623 27 355 0.0 1.6 0.00 0.00 0.00 71 1014.3
20260901181619 27 9 0.0 4.8 0.00 0.00 0.00 73 1014.2
20260901180618 27 355 0.0 1.6 0.00 0.00 0.00 75 1014.3
20260901180119 27 9 0.0 1.6 0.00 0.00 0.00 75 1014.3
20260901175617 26 341 0.0 1.6 0.00 0.00 0.00 75 1014.3
20260901175114 26 134 0.0 0.0 0.00 0.00 0.00 75 1014.3
20260901174112 26 325 0.0 6.4 0.00 0.00 0.00 78 1014.2
20260901173110 25 329 0.0 1.6 0.00 0.00 0.00 79 1014.3
20260901172612 25 340 0.0 1.6 0.00 0.00 0.00 81 1014.3
20260901172110 25 342 0.0 0.0 0.00 0.00 0.00 82 1014.3
20260901171608 25 355 0.0 0.0 0.00 0.00 0.00 80 1014.4
20260901171111 25 0 0.0 6.4 0.00 0.00 0.00 80 1014.5
20260901170606 25 5 0.0 6.4 0.00 0.00 0.00 82 1014.5
20260901170106 25 0 0.0 3.2 0.00 0.00 0.00 80 1014.6
20260901165103 25 10 0.0 1.6 0.00 0.00 0.00 81 1014.6
20260901164604 25 320 0.0 0.0 0.00 0.00 0.00 83 1014.6
20260901163602 24 231 0.0 0.0 0.00 0.00 0.00 84 1014.7
20260901162602 23 97 0.0 1.6 0.00 0.00 0.00 89 1014.7
20260901162102 23 346 0.0 0.0 0.00 0.00 0.00 89 1014.7
20260901161603 23 67 0.0 0.0 0.00 0.00 0.00 88 1014.8
20260901161103 23 5 0.0 0.0 0.00 0.00 0.00 88 1014.7
20260901155558 22 0 0.0 8.0 0.00 0.00 0.00 89 1014.8
20260901155057 22 355 0.0 1.6 0.00 0.00 0.00 89 1014.9
20260901154558 22 355 0.0 1.6 0.00 0.00 0.00 89 1014.9
20260901154058 22 36 0.0 6.4 0.00 0.00 0.00 91 1014.9
20260901153557 22 351 0.0 6.4 0.00 0.00 0.00 91 1014.9
20260901153058 22 293 0.0 4.8 0.00 0.00 0.00 94 1015.0
20260901152559 22 15 0.0 4.8 0.00 0.00 0.00 94 1015.0
20260901151558 22 66 0.0 0.0 0.00 0.00 0.00 97 1015.0
20260901151054 21 17 0.0 8.0 0.00 0.00 0.00 97 1015.0
20260901150553 21 0 0.0 8.0 0.00 0.00 0.00 97 1015.2
20260901150054 21 15 0.0 3.2 0.00 0.00 0.00 97 1015.3
20260901145054 20 19 0.0 9.7 0.00 0.00 0.00 97 1015.3
20260901144554 20 351 0.0 1.6 0.00 0.00 0.00 97 1015.2
20260901144054 20 0 0.0 1.6 0.00 0.00 0.00 97 1015.2
20260901143554 20 16 0.0 8.0 0.00 0.00 0.00 97 1015.2
20260901143054 20 351 0.0 8.0 0.00 0.00 0.00 97 1015.2
20260901142554 20 355 0.0 4.8 0.00 0.00 0.00 98 1015.1
20260901141553 19 33 0.0 3.2 0.00 0.00 0.00 98 1015.1
20260901141052 18 355 0.0 1.6 0.00 0.00 0.00 98 1015.2
20260901140552 18 27 0.0 9.7 0.00 0.00 0.00 97 1015.1
20260901140050 18 5 0.0 9.7 0.00 0.00 0.00 97 1015.1
20260901134048 18 19 0.0 6.4 0.00 0.00 0.00 97 1015.2
20260901133549 18 40 0.0 0.0 0.00 0.00 0.00 97 1015.3
20260901133045 18 355 0.0 0.0 0.00 0.00 0.00 97 1015.3
20260901132544 17 355 0.0 3.2 0.00 0.00 0.00 97 1015.3
20260901132043 17 13 0.0 4.8 0.00 0.00 0.00 97 1015.2
20260901131537 18 21 0.0 4.8 0.00 0.00 0.00 97 1015.1
20260901131031 18 355 0.0 4.8 0.00 0.00 0.00 97 1015.1
20260901130022 18 342 0.0 0.0 0.00 0.00 0.00 97 1014.9
20260901125007 18 24 0.0 0.0 0.00 0.00 0.00 97 1014.6
20260901123955 18 348 0.0 0.0 0.00 0.00 0.00 97 1013.7
20260901123449 18 292 0.0 3.2 0.00 0.00 0.00 97 1013.2
20260901122943 18 252 0.0 6.4 0.00 0.00 0.00 97 1012.9
20260901122439 18 229 0.0 6.4 0.00 0.00 0.00 97 1012.8
20260901121931 18 221 0.0 8.0 0.00 0.00 0.00 97 1013.5
20260901121428 18 179 1.6 8.0 0.00 0.00 0.00 97 1013.3
20260901120927 18 221 1.6 8.0 0.00 0.00 0.00 97 1013.8
20260901120428 18 199 1.6 8.0 0.00 0.00 0.00 97 1013.9
20260901115927 18 0 0.0 1.6 0.00 0.00 0.00 97 1014.0
20260901115434 18 345 0.0 0.0 0.00 0.00 0.00 97 1014.5
20260901114930 18 355 0.0 0.0 0.00 0.00 0.00 97 1015.1
20260901114427 18 355 0.0 0.0 0.00 0.00 0.00 97 1015.2
20260901113926 18 11 0.0 0.0 0.00 0.00 0.00 96 1015.4
20260901113426 -17 0.0 0.0 0.00 0.00 0.00 1015.0
20260901112913 -17 0.0 0.0 0.00 0.00 0.00 1014.8
20260901112328 -17 0.0 0.0 0.00 0.00 0.00 1014.8
20260901111820 -17 0.0 0.0 0.00 0.00 0.00 1014.9
20260901111228 -17 0.0 0.0 0.00 0.00 0.00 1015.0
20260901110722 -17 0.0 0.0 0.00 0.00 0.00 1014.8
20260901110216 -17 0.0 0.0 0.00 0.00 0.00 1014.8
20260901105710 -17 0.0 0.0 0.00 0.00 0.00 1014.7
20260901104626 -17 0.0 0.0 0.00 0.00 0.00 1014.9
20260901104119 -17 0.0 0.0 0.00 0.00 0.00 1014.8
20260901103523 -17 0.0 0.0 0.00 0.00 0.00 1014.6
20260901103022 -17 0.0 0.0 0.00 0.00 0.00 1015.3
20260901102520 -17 0.0 0.0 0.00 0.00 0.00 1015.5
20260901101926 -17 0.0 0.0 0.00 0.00 0.00 1015.0
20260901101329 -17 0.0 0.0 0.00 0.00 0.00 1015.0
20260901100821 -17 0.0 0.0 0.00 0.00 0.00 1015.1
20260901100319 -17 0.0 0.0 0.00 0.00 0.00 1015.2
20260901095818 -17 0.0 0.0 0.00 0.00 0.00 1015.2
20260901095220 -17 0.0 0.0 0.00 0.00 0.00 1015.3
20260901094717 -17 0.0 0.0 0.00 0.00 0.00 1015.4
20260901094122 -17 0.0 0.0 0.00 0.00 0.00 1015.2
20260901093619 -17 0.0 0.0 0.00 0.00 0.00 1015.1
20260901093019 -17 0.0 0.0 0.00 0.00 0.00 1015.1
20260901091923 -17 0.0 0.0 0.00 0.00 0.00 1015.5
20260901091417 -17 0.0 0.0 0.00 0.00 0.00 1015.3
20260901090825 -17 0.0 0.0 0.00 0.00 0.00 1015.2
20260901090326 -17 0.0 0.0 0.00 0.00 0.00 1015.3
20260901085225 -17 0.0 0.0 0.00 0.00 0.00 1015.2
20260901084725 -17 0.0 0.0 0.00 0.00 0.00 1015.2
20260901084221 -17 0.0 0.0 0.00 0.00 0.00 1015.0
20260901083624 -17 0.0 0.0 0.00 0.00 0.00 1014.9
20260901083121 -17 0.0 0.0 0.00 0.00 0.00 1014.9
20260901082022 -17 0.0 0.0 0.00 0.00 0.00 1014.8
20260901081425 -17 0.0 0.0 0.00 0.00 0.00 1014.8
20260901080923 -17 0.0 0.0 0.00 0.00 0.00 1015.1
20260901080417 -17 0.0 0.0 0.00 0.00 0.00 1015.5
20260901075829 -17 0.0 0.0 0.00 0.00 0.00 1015.5
20260901075326 -17 0.0 0.0 0.00 0.00 0.00 1015.5
20260901073730 18 190 0.0 6.4 0.00 0.00 0.00 95 1015.1
20260901073229 18 190 0.0 6.4 0.00 0.00 0.00 95 1015.2
20260901072723 18 190 0.0 0.0 0.00 0.00 0.00 95 1015.1
20260901071206 18 190 0.0 0.0 0.00 0.00 0.00 95 1015.3
20260901070659 18 190 0.0 0.0 0.00 0.00 0.00 95 1015.4
20260901070153 18 190 1.6 6.4 0.00 0.00 0.00 95 1015.3
20260901065647 18 190 1.6 6.4 0.00 0.00 0.00 95 1015.3
20260901064136 18 273 0.0 0.0 0.00 0.00 0.00 95 1015.4
20260901063633 18 273 0.0 0.0 0.00 0.00 0.00 95 1015.4